Regional Weather Roundup
Issued by NWS

Home | Current Version | Previous Version | Text Only | Print | Product List | Glossary On
Versions: 1 2 3 4 5 6 7 8 9 10 11 12 13 14 15 16 17 18 19 20 21 22 23 24 25 26 27 28 29 30 31 32 33 34 35 36 37 38 39 40 41 42 43 44 45 46 47 48 49 50
000
ASUS43 KDMX 230506
RWRIA

WEATHER ROUNDUP FOR IOWA
NATIONAL WEATHER SERVICE DES MOINES IA
1200 AM CDT TUE MAY 23 2017

NOTE: "FAIR" INDICATES FEW OR NO CLOUDS BELOW 12,000 FEET WITH NO
SIGNIFICANT WEATHER AND/OR OBSTRUCTIONS TO VISIBILITY.

* - THESE STATIONS ARE NOT NWS STATIONS...THUS NOT UNDER NWS
QUALITY CONTROL.  THEY ALSO DO NOT REPORT WEATHER SUCH
AS PRECIPITATION OR FOG.

IAZ001>003-012>014-020>022-031>034-043>046-230600-
   NORTHWEST IOWA

CITY           SKY/WX    TMP DP  RH WIND       PRES   REMARKS
CARROLL *      CLEAR     55  50  82 NW9       29.87S
CHEROKEE *     CLOUDY    51  48  90 N5        29.90F
DENISON *      PTCLDY    52  48  87 NW10      29.92R
LE MARS *      MOCLDY    52  46  82 NW7       29.93F
ORANGE CITY *  MOCLDY    50  46  87 NW6       29.92S
SHELDON *      CLOUDY    50  46  87 N7          N/A
SIOUX CITY     MOCLDY    52  47  83 NW8       29.94S
SPENCER        CLOUDY    52  49  89 NW9       29.90R
STORM LAKE *   CLOUDY    50  46  87 NW12G18   29.89F
$$

IAZ055>058-069>071-079>083-090>094-230600-
   SOUTHWEST IOWA

CITY           SKY/WX    TMP DP  RH WIND       PRES   REMARKS
ATLANTIC *     PTCLDY    54  52  94 NW12      29.89R
AUDUBON *      PTCLDY    54  48  82 NW3       29.90R
CLARINDA *     CLOUDY    55  54  94 CALM      29.90F
COUNCIL BLFS * PTCLDY    55  52  88 N12       29.91S
CRESTON *      CLOUDY    57  54  88 W7        29.88F
HARLAN  *      PTCLDY    54  50  87 NW10      29.93S
LAMONI         MOCLDY    54  52  93 SW8       29.87F
RED OAK *      PTCLDY    55  54  94 W9        29.88F
SHENANDOAH *   CLOUDY    57  54  88 NW7       29.89S
$$

IAZ047>049-059>061-072>074-084-230600-
   CENTRAL IOWA

CITY           SKY/WX    TMP DP  RH WIND       PRES   REMARKS
AMES           CLOUDY    52  51  97 W6        29.84F
ANKENY *       CLOUDY    55  52  88 CALM      29.86S
BOONE *        CLOUDY    55  54  94 W7        29.84S
DES MOINES     LGT RAIN  57  54  89 W5        29.85F
GRINNELL*      CLOUDY    57  51  80 W6        29.86S
MARSHALLTOWN   LGT RAIN  56  53  90 SW8       29.83S
NEWTON *       CLOUDY    57  52  82 W5        29.84F
PELLA *        CLOUDY    58  52  81 W8        29.86S
PERRY *          N/A     55  53  96 W8        29.86S
$$

IAZ004>006-015-016-023>025-035-036-230600-
   NORTH CENTRAL IOWA

CITY           SKY/WX    TMP DP  RH WIND       PRES   REMARKS
ALGONA *       CLOUDY    52  52 100 N6        29.86F
CLARION *      CLOUDY    54  54 100 NW9       29.86R
ESTHERVILLE    CLOUDY    51  50  96 NW13      29.87S
FORT DODGE *   CLEAR     52  48  87 CALM      29.86S
MASON CITY     CLOUDY    52  50  93 W6        29.85S
FOREST CITY *  RAIN      52  46  82 NW7       29.86R
WEBSTER CITY * CLEAR     54  50  87 W8        29.83S
IOWA FALLS *     N/A     54  52  92 W8        29.85S
$$

IAZ007>011-017>019-026>030-037>042-050>054-066-230600-
   NORTHEAST IOWA

CITY           SKY/WX    TMP DP  RH WIND       PRES   REMARKS
CEDAR RAPIDS   CLOUDY    55  55 100 SW6       29.83S
CHARLES CITY * CLOUDY    52  52 100 NW7       29.83R
CLINTON *      CLOUDY    56  54  93 SW7       29.86F
DECORAH *      MOCLDY    54  52  94 NE3       29.79F
DUBUQUE        CLOUDY    57  55  93 S9        29.83F
MONTICELLO *   CLOUDY    57  55  94 SW5       29.83S
OELWEIN *      MOCLDY    54  54 100 SW7       29.82S
WATERLOO       MOCLDY    54  51  90 W5        29.82R
$$

IAZ064-065-067-068-078-230600-
   EAST CENTRAL IOWA

CITY           SKY/WX    TMP DP  RH WIND       PRES   REMARKS
DAVENPORT      CLOUDY    58  52  80 S9        29.86F
IOWA CITY      PTCLDY    58  52  80 SW5       29.86S
MT. PLEASANT * PTCLDY    56  51  83 S9        29.87S
MUSCATINE *    PTCLDY    57  52  82 S7        29.86F
QUAD CITIES    CLOUDY    59  53  80 S7        29.86F
$$

IAZ062-063-075>077-085>089-095>099-230600-
   SOUTHEAST IOWA

CITY           SKY/WX    TMP DP  RH WIND       PRES   REMARKS
BURLINGTON     PTCLDY    58  53  84 S7        29.87F
FAIRFIELD *    PTCLDY    55  50  82 SW8       29.86S
FORT MADISON * PTCLDY    59  54  82 S9        29.89S
KEOKUK *       CLOUDY    57  54  88 S12       29.89F
OSKALOOSA *      N/A     53  50  90 SW7       29.86S
CENTERVILLE *    N/A     52  50  93 CALM      29.89S
OTTUMWA        CLOUDY    55  51  86 SW8       29.86F
WASHINGTON *   CLOUDY    55  52  88 SW9       29.86F
$$

ABBREVIATIONS USED IN REMARKS
   TC - TEMPERATURES IN CELSIUS
  WCI - WIND CHILL INDEX
   HX - HEAT INDEX
  VSB - VISIBILITY
$$




USA.gov is the U.S. government's official web portal to all federal, state and local government web resources and services.